Chillicothe, MO

12:37 AM CDT on May 26, 2017 (GMT -0500)
Chillicothe

Weather History for KCDJ - October, 2014

Change the Weather History Date:

Friday, October 17, 2014

  Actual Average (KIRK) Record (KIRK)
Temperature  
Mean Temperature 59 °F -  
Max Temperature 66 °F 64 °F 89 °F (2016)
Min Temperature 51 °F 42 °F 25 °F (1976)
Degree Days  
Heating Degree Days 6    
Growing Degree Days 9 (Base 50)    
Moisture  
Dew Point 44 °F    
Average Humidity 60    
Maximum Humidity 75    
Minimum Humidity 47    
Precipitation  
Precipitation 0.00 in - - ()
Sea Level Pressure  
Sea Level Pressure 29.93 in    
Wind  
Wind Speed 5 mph (NW)    
Max Wind Speed 13 mph    
Max Gust Speed 21 mph    
Averages and records for this station are not official NWS values.
T = Trace of Precipitation, MM = Missing Value Source: NWS Daily Summary

Daily Weather History Graph

Daily Weather History Graph

Search for Another Location

Airport or City:

Trip Planner

Search our weather history database for the weather conditions in past years. The results will help you decide how hot, cold, wet, or windy it might be!

Date:

Astronomy

Oct. 17, 2014 Rise Set
Actual Time 7:26 AM CDT 6:31 PM CDT
Civil Twilight 6:59 AM CDT 6:59 PM CDT
Nautical Twilight 6:28 AM CDT 7:30 PM CDT
Astronomical Twilight 5:56 AM CDT 8:01 PM CDT
Moon 1:32 AM CDT (10/17) 3:18 PM CDT (10/17)
Length of Visible Light 11h 59m
Length of Day
11h 05m
Waning Crescent, 32% of the Moon is Illuminated
Oct 17
Waning Crescent
Oct 23
New
Oct 30
First Quarter
Nov 6
Full
Nov 14
Last Quarter

Hourly Weather History & Observations

Time (CDT) Temp. Dew Point Humidity Pressure Visibility Wind Dir Wind Speed Gust Speed Precip Events Conditions
12:52 AM 59.0 °F 44.1 °F 58% 29.78 in - WNW 4.6 mph - N/A   Unknown
1:52 AM 57.9 °F 42.1 °F 56% 29.78 in - Calm Calm - N/A   Unknown
2:52 AM 55.9 °F 42.1 °F 60% 29.79 in - Calm Calm - N/A   Unknown
3:52 AM 55.9 °F 41.0 °F 57% 29.79 in - WNW 5.8 mph - N/A   Unknown
4:52 AM 55.0 °F 41.0 °F 59% 29.81 in - NW 5.8 mph - N/A   Unknown
5:52 AM 53.1 °F 41.0 °F 64% 29.84 in - Variable 6.9 mph - N/A   Unknown
6:52 AM 53.1 °F 43.0 °F 69% 29.85 in - WNW 5.8 mph - N/A   Unknown
7:52 AM 52.0 °F 44.1 °F 74% 29.88 in - West 3.5 mph - N/A   Unknown
8:52 AM 55.0 °F 45.0 °F 69% 29.90 in - Variable 4.6 mph - N/A   Unknown
9:52 AM 57.0 °F 45.0 °F 64% 29.92 in - NW 9.2 mph 18.4 mph N/A   Unknown
10:52 AM 61.0 °F 46.0 °F 58% 29.92 in - NW 9.2 mph 18.4 mph N/A   Unknown
11:52 AM 62.1 °F 45.0 °F 53% 29.94 in - Variable 6.9 mph 20.7 mph N/A   Unknown
12:52 PM 64.9 °F 46.0 °F 50% 29.93 in - NW 12.7 mph 19.6 mph N/A   Unknown
1:52 PM 64.9 °F 46.0 °F 50% 29.93 in - WNW 9.2 mph 20.7 mph N/A   Unknown
2:52 PM 64.9 °F 45.0 °F 48% 29.94 in - WNW 12.7 mph 19.6 mph N/A   Unknown
3:52 PM 66.0 °F 45.0 °F 47% 29.95 in - NW 9.2 mph 16.1 mph N/A   Unknown
4:52 PM 64.0 °F 45.0 °F 50% 29.97 in - NW 8.1 mph - N/A   Unknown
5:52 PM 63.0 °F 45.0 °F 52% 29.98 in - WNW 8.1 mph - N/A   Unknown
6:52 PM 59.0 °F 45.0 °F 60% 30.00 in - NW 4.6 mph - N/A   Unknown
7:52 PM 57.0 °F 46.0 °F 67% 30.03 in - Calm Calm - N/A   Unknown
8:52 PM 54.0 °F 46.0 °F 75% 30.05 in - Calm Calm - N/A   Unknown
9:52 PM 55.0 °F 44.1 °F 67% 30.06 in - Variable 4.6 mph - N/A   Unknown
10:52 PM 54.0 °F 43.0 °F 66% 30.08 in - North 5.8 mph - N/A   Unknown
11:52 PM 51.1 °F 43.0 °F 74% 30.09 in - North 5.8 mph - N/A   Unknown